Simultaneous Nadir Overpasses (SNOs) Predictions

Prediction of SNOs between GOES-16 and TERRA Satellite Orbit:

Table of predicted SNOs for the next 14.0 days since TLE Epoch: 2/10/2024
Index Date Time (GOES-16) GOES-16 Lat,Lon TERRA Lat,Lon Distance(km) Time Diff (sec)
1 02/10/2024 14:36:13 0.03, -75.22 -0.86, -70.91 488.56 80
2 02/11/2024 02:59:04 -0.04, -75.20 -0.16, -75.82 71.01 80
3 02/13/2024 02:39:26 -0.03, -75.21 0.72, -71.73 396.09 80
4 02/13/2024 15:02:06 0.04, -75.24 0.32, -76.60 153.84 80
5 02/15/2024 14:42:28 0.03, -75.26 -0.53, -72.50 314.02 80
6 02/16/2024 03:05:18 -0.04, -75.25 -0.46, -77.41 245.02 80
7 02/18/2024 02:45:38 -0.03, -75.27 0.36, -73.30 223.46 80
8 02/18/2024 15:08:20 0.04, -75.30 0.61, -78.18 326.38 80
9 02/20/2024 14:48:40 0.03, -75.33 -0.24, -74.08 143.11 80
10 02/21/2024 03:11:30 -0.04, -75.32 -0.78, -78.98 415.24 80
11 02/23/2024 02:51:49 -0.04, -75.36 0.04, -74.87 55.57 80
12 02/23/2024 15:11:50 0.04, -75.39 0.98, -79.73 493.97 80
